Theta_e
287 281 280 282 283 283 280 278 277 278 282 279 279 278 281 283 283 282 280 280 280 278 279 280 281 281 280 281 281 282 282 283 284 284 286 287 286 288 292 293 294 296 297 300
282 279 286 287 286 283 281 277 277 279 281 279 277 277 282 280 280 281 281 279 278 277 276 277 279 279 279 279 280 281 282 283 284 284 287 285 287 289 291 293 294 296 298 301
279 284 288 286 282 281 279 278 277 277 278 278 276 274 274 279 280 279 280 279 277 276 274 275 277 276 277 278 278 280 282 283 283 284 285 287 287 287 289 293 295 300 302 299
281 287 285 283 281 281 276 281 279 278 272 269 275 267 274 277 278 279 279 277 275 274 275 276 276 275 275 277 278 280 281 282 283 283 283 282 283 283 286 289 293 297 300 297
279 282 282 281 282 283 278 281 278 277 270 266 272 263 273 275 276 277 278 276 274 275 274 274 273 277 276 277 277 278 279 280 281 282 282 281 282 284 286 288 290 296 297 294
281 285 284 284 284 283 282 280 278 276 273 262 268 269 272 272 273 274 274 275 276 275 275 275 275 276 275 276 276 276 277 278 281 281 280 280 281 282 283 285 288 293 292 291
282 282 283 284 281 282 279 275 264 263 260 264 272 269 274 274 274 274 273 274 272 274 274 273 273 274 275 274 275 276 277 277 279 279 280 279 281 281 282 284 287 288 286 287
277 276 280 283 281 279 278 273 267 260 261 264 273 265 273 272 269 266 268 267 273 273 274 273 273 272 273 275 275 275 276 277 277 277 278 279 280 280 281 283 285 286 285 284
277 278 281 281 281 280 277 273 276 263 262 262 265 271 277 276 272 269 268 275 272 272 271 271 272 272 272 272 274 275 276 276 276 277 277 278 279 279 279 281 283 283 283 284
280 274 280 279 282 280 278 279 270 266 260 259 265 265 270 271 269 270 270 271 271 271 271 271 271 271 272 273 273 274 274 272 272 276 277 278 278 278 278 279 280 279 280 281
281 278 277 278 273 272 274 272 273 271 267 260 262 266 269 270 267 269 271 272 268 268 268 268 269 270 268 268 268 269 270 269 272 274 275 275 276 277 277 278 278 278 278 278
282 278 276 277 275 277 276 269 270 266 263 261 265 269 265 265 263 265 270 273 268 269 267 267 268 265 265 265 267 268 269 267 273 273 275 275 276 277 276 276 277 278 278 278
282 278 273 275 275 276 271 273 270 267 266 261 263 268 264 261 265 270 266 266 267 270 267 264 263 263 265 265 268 267 268 272 273 272 274 275 276 276 276 276 277 278 278 278
284 278 276 274 272 270 267 267 272 271 261 260 266 268 277 270 268 269 266 265 262 263 261 259 260 262 263 264 264 266 270 271 273 274 274 273 275 276 277 277 278 278 278 278
281 275 276 277 276 268 268 265 269 270 265 269 264 263 273 275 272 265 260 259 261 261 260 260 260 261 264 264 265 269 269 269 270 273 274 273 275 276 276 276 277 277 278 278
280 275 275 273 269 264 266 266 268 272 262 266 269 272 274 262 256 261 262 258 259 258 259 259 259 259 265 265 267 268 270 270 271 271 274 275 275 276 276 276 276 276 276 277
279 277 274 268 269 270 267 265 265 263 260 270 265 271 259 267 262 263 264 261 262 261 259 260 261 262 265 268 273 269 271 272 273 273 275 276 276 276 276 276 275 275 275 276
278 276 276 270 270 265 271 257 263 265 263 269 266 265 265 266 264 262 262 263 263 261 261 262 264 269 268 271 271 274 275 274 273 274 275 276 275 275 275 275 275 275 275 274
280 278 273 268 262 271 273 264 265 267 270 268 272 274 262 259 263 270 263 261 265 264 264 265 264 264 267 267 269 272 271 273 273 274 274 275 275 275 275 274 274 275 275 274
280 278 275 268 264 262 271 269 268 266 268 266 266 266 262 272 269 273 262 263 262 264 264 265 266 266 267 267 270 273 271 272 271 272 273 272 273 273 273 274 274 274 274 274
270 272 270 270 266 268 272 273 276 269 271 264 261 265 268 271 274 269 264 264 265 266 266 265 265 267 267 267 269 270 269 268 271 272 272 272 272 271 272 272 272 272 271 272
271 270 270 269 264 265 274 275 274 277 271 267 263 264 269 270 262 263 265 267 267 267 267 270 268 268 269 271 272 271 270 271 271 271 270 269 268 271 270 266 268 268 268 267
272 277 275 275 274 277 273 276 275 272 276 271 272 272 273 273 271 271 271 270 271 270 270 271 270 270 270 270 271 270 270 270 268 266 264 264 266 269 269 266 267 266 265 266
277 279 278 278 281 280 282 282 280 277 279 279 280 280 278 277 275 274 272 272 272 272 271 271 269 269 269 269 271 271 269 269 265 265 265 265 265 266 265 270 269 267 266 265
279 280 279 278 282 284 284 283 283 281 277 280 280 280 280 278 277 275 274 274 273 273 272 270 270 270 270 269 269 268 268 267 266 265 266 266 267 266 267 268 268 269 269 269
279 279 278 278 284 284 285 286 284 283 283 283 281 280 280 280 279 276 276 275 274 273 272 270 270 269 269 267 268 267 266 267 266 267 266 267 267 265 266 266 266 274 276 277
Wind_Speed
2 2 7 8 7 1 2 3 6 3 2 3 9 13 21 11 12 12 10 9 9 6 4 4 3 2 2 1 4 5 5 5 6 6 7 7 9 10 9 9 12 14 13 14
2 7 3 3 3 5 3 3 6 6 2 3 6 18 20 4 5 7 9 7 7 5 2 1 3 1 2 3 5 5 5 6 6 5 5 5 7 8 10 11 12 14 15 14
6 0 4 2 3 3 4 5 3 4 7 2 8 9 5 4 2 1 5 6 6 6 3 5 5 4 3 5 5 5 5 7 6 6 6 6 7 8 8 8 9 9 10 7
6 2 5 4 5 5 2 2 2 1 5 3 5 9 8 4 7 4 5 6 6 3 3 5 5 3 3 4 5 5 6 7 6 5 5 8 8 9 8 8 10 11 7 5
5 4 5 4 4 5 4 1 1 3 3 5 1 4 10 3 8 7 8 7 6 4 5 6 4 4 4 4 5 6 7 6 6 5 6 6 9 8 8 8 12 11 5 8
6 1 2 3 3 2 4 4 4 3 4 4 4 4 10 5 7 1 2 6 4 4 5 4 3 4 5 6 6 6 7 7 6 7 7 8 10 10 8 8 7 4 5 4
2 2 1 0 2 2 5 5 4 7 6 7 2 1 14 7 6 6 8 6 5 6 4 3 5 5 6 6 6 7 6 9 7 8 8 6 9 8 10 8 4 6 4 4
1 3 1 3 1 3 3 6 7 6 3 6 3 8 10 5 4 4 4 4 3 5 3 4 5 5 6 9 8 7 8 8 7 8 7 6 5 5 5 6 3 4 3 4
3 2 0 2 1 1 3 2 3 8 1 3 4 8 10 2 5 4 6 4 6 5 4 4 5 5 6 6 8 8 8 8 8 7 6 6 5 6 4 5 3 4 5 4
1 4 1 1 1 2 1 3 3 4 1 6 6 7 8 5 5 5 7 6 7 5 5 3 4 5 5 7 7 7 7 6 6 7 5 5 5 5 4 4 4 3 3 3
4 2 1 1 4 7 1 1 3 4 4 6 4 10 8 7 6 7 8 5 6 4 5 3 4 4 5 6 6 6 6 6 6 6 4 4 4 4 4 4 3 3 4 4
1 2 4 3 2 2 1 6 4 6 6 1 3 13 3 5 6 5 8 6 3 3 4 3 5 5 6 6 6 6 6 5 5 5 5 4 4 4 4 4 4 4 5 4
3 3 3 1 1 1 2 4 3 4 3 6 6 11 1 2 6 7 6 5 3 3 3 4 5 4 5 6 5 5 5 5 5 5 5 4 4 4 4 4 4 5 5 5
3 3 4 4 3 4 2 3 5 5 4 4 10 11 16 7 8 7 5 4 4 5 5 4 4 5 5 4 4 4 5 5 5 5 5 5 5 4 5 5 5 6 6 7
2 4 3 7 11 5 6 7 8 10 7 8 6 8 14 14 9 5 3 4 4 5 4 3 3 5 5 4 4 4 4 5 4 4 5 5 6 6 7 8 8 8 8 7
2 3 1 6 2 4 7 10 10 12 3 12 12 25 12 4 4 5 6 5 6 5 6 5 4 5 4 2 3 3 4 4 4 4 5 5 6 7 8 8 9 9 10 10
2 2 2 6 2 5 8 9 12 5 4 9 7 13 2 4 5 6 6 7 8 7 6 6 5 4 3 0 2 1 2 3 3 3 4 5 6 8 8 8 9 9 9 8
2 2 2 5 6 2 7 2 5 6 7 14 8 8 7 6 6 7 6 6 8 8 7 7 5 4 3 1 0 0 2 2 2 3 5 5 5 6 7 7 7 7 6 7
3 2 2 2 2 10 3 4 7 7 8 10 15 14 5 4 4 8 6 6 7 8 8 7 6 5 3 2 3 3 2 1 2 3 4 4 3 5 5 7 6 5 5 6
3 0 1 1 1 4 7 4 5 3 5 4 6 6 4 3 3 7 5 6 5 7 5 7 7 4 4 4 3 3 2 3 2 2 4 3 3 4 5 5 4 3 3 4
2 1 3 3 4 10 8 3 5 7 10 3 5 6 6 6 6 4 3 3 4 6 8 4 5 7 6 3 4 5 4 4 3 1 3 4 4 5 5 5 3 4 4 4
6 5 3 2 1 8 6 3 5 8 3 4 5 5 8 8 4 3 5 6 8 8 7 8 7 8 6 6 5 6 7 6 6 5 4 3 2 2 2 3 2 2 3 3
2 5 5 10 8 4 4 6 5 4 6 5 3 5 8 7 8 7 8 8 10 11 10 9 9 8 7 7 6 6 6 6 5 4 3 3 2 2 4 4 4 2 3 3
3 3 3 1 4 10 10 9 9 7 13 7 8 6 6 8 8 9 8 9 10 10 11 9 9 9 10 8 9 9 5 6 6 6 6 4 4 3 3 1 2 2 3 2
5 6 3 7 14 16 8 5 9 6 4 8 8 8 11 9 10 10 10 11 12 11 10 10 11 11 12 8 10 7 6 7 6 5 5 5 5 6 5 4 5 5 4 5
4 5 5 6 5 6 12 10 5 6 8 11 9 7 8 9 12 8 11 10 11 12 11 11 11 10 10 8 10 8 7 9 8 7 6 6 5 4 4 4 4 14 17 15
Wind_Direction
218 114 219 215 206 250 141 227 243 249 343 272 249 274 276 275 247 242 229 231 214 165 126 74 33 39 44 353 321 304 299 306 309 312 306 309 306 299 300 294 294 290 284 279
29 232 224 199 171 188 182 256 262 282 12 343 302 290 287 281 246 247 223 211 158 134 86 320 308 267 244 279 284 286 294 305 298 293 302 278 286 293 296 291 287 279 274 270
191 19 137 167 208 221 207 206 239 237 331 263 310 294 331 263 246 331 41 106 115 149 196 293 299 284 290 292 296 310 299 292 290 289 302 293 292 290 290 299 302 309 318 326
240 211 177 201 241 158 282 89 80 19 49 267 47 282 293 274 277 221 195 164 159 146 307 283 293 293 290 298 304 305 287 285 288 306 299 296 287 286 291 298 299 303 297 319
262 169 218 171 214 160 209 94 189 135 101 44 1 64 270 358 284 254 223 172 175 228 264 280 273 256 294 318 303 298 290 288 286 291 287 283 279 282 290 292 299 286 345 327
240 306 251 200 84 128 117 76 53 57 89 17 234 131 278 204 211 153 104 172 217 296 276 255 235 284 310 315 314 299 293 301 299 303 290 281 286 289 290 295 300 310 326 289
175 199 71 354 131 90 78 67 327 351 9 227 248 354 249 264 224 200 191 222 262 271 260 259 289 313 319 309 305 306 321 306 309 301 293 286 292 292 287 294 320 309 286 349
334 293 340 3 154 192 173 153 159 221 239 272 347 239 255 222 257 246 246 249 269 282 288 283 313 329 317 320 314 311 310 310 306 298 296 290 289 284 287 295 312 280 243 282
302 264 15 53 23 71 176 198 151 100 68 30 233 284 289 232 291 296 287 264 290 277 286 295 340 321 305 306 309 312 314 316 307 298 301 304 308 307 306 321 319 307 329 13
27 297 136 85 40 40 124 154 67 10 28 292 288 283 246 303 282 309 295 282 295 290 306 334 317 314 313 313 310 313 316 302 300 311 324 328 321 327 329 334 346 334 13 10
148 164 214 9 198 180 88 261 59 113 124 175 298 268 218 217 217 246 276 292 274 275 266 283 301 310 310 309 319 312 321 324 324 321 326 338 341 348 356 6 351 359 34 37
153 262 262 243 256 259 226 196 145 121 256 198 146 272 202 215 232 245 281 293 265 216 253 297 316 323 323 316 321 323 328 331 326 328 344 355 7 12 13 2 10 21 48 40
157 223 279 249 54 354 233 209 145 119 76 207 143 261 302 279 283 274 269 296 306 285 309 322 334 315 313 316 326 339 333 342 348 351 351 7 29 32 28 27 34 46 58 56
334 257 250 248 210 121 234 231 196 136 127 194 232 287 288 298 295 315 290 281 281 283 280 278 321 315 314 320 335 338 348 348 355 2 9 16 19 30 40 46 49 59 63 71
216 241 219 263 272 198 230 200 194 201 193 189 256 230 279 293 285 273 268 278 281 276 288 280 289 302 319 332 352 8 359 358 357 17 32 30 35 44 48 47 47 50 53 57
189 261 284 269 155 187 258 220 214 218 235 279 275 287 282 291 302 287 255 236 250 246 248 260 277 290 308 317 41 19 9 3 1 17 41 47 51 52 56 53 54 55 51 47
220 265 346 268 298 300 297 221 179 196 223 178 188 228 309 301 287 261 258 205 224 220 214 223 229 247 267 43 130 90 359 348 12 21 50 57 59 62 62 65 63 59 59 59
270 197 233 279 340 318 245 229 171 185 227 222 279 249 220 229 254 256 220 196 213 213 204 214 216 219 248 260 40 13 55 18 24 65 62 54 65 68 63 65 63 53 56 56
211 204 270 288 232 293 340 238 150 161 284 206 230 257 249 286 308 288 205 202 199 195 197 194 192 209 242 235 263 126 102 113 77 71 66 57 65 88 83 80 74 62 65 56
198 95 230 50 288 231 243 278 175 133 334 231 201 253 214 171 36 260 194 190 205 193 185 188 196 204 201 230 238 173 183 165 164 152 135 119 105 111 109 115 111 99 89 92
152 172 217 222 278 285 256 237 159 71 240 231 189 217 177 197 209 288 155 193 188 182 188 178 182 201 213 203 187 183 174 215 228 188 153 150 150 147 150 143 140 136 121 106
169 159 190 124 288 294 163 97 120 220 285 210 211 210 210 235 281 276 258 187 177 187 186 188 193 212 213 208 194 206 207 194 183 179 173 181 200 179 127 109 60 54 96 115
235 198 181 195 227 282 241 240 248 177 241 237 220 222 213 220 222 205 209 208 201 195 194 189 198 208 212 206 202 211 219 180 179 169 191 210 209 177 175 158 161 151 158 163
250 141 245 348 265 242 259 255 258 223 247 248 241 256 192 233 215 219 209 198 200 203 201 194 190 209 219 206 209 217 191 179 169 198 197 195 189 216 239 220 198 185 191 203
206 149 217 260 286 292 283 226 259 283 254 265 257 236 233 213 231 213 211 207 204 199 197 194 204 211 222 196 212 207 190 168 194 209 209 213 208 203 205 215 202 214 220 194
198 201 189 247 270 233 287 300 321 290 279 268 258 265 242 213 237 202 221 207 196 199 190 195 208 220 220 200 211 203 187 182 191 210 216 215 209 212 222 224 262 246 242 240